Location: Bismarck
(46.7731°N, 100.8200°W)
Time: 02:24:10
(UTC-05:00)

ISS - All Passes

Search period start: 31 July 2014 00:00
Search period end: 10 August 2014 00:00
Orbit: 411 x 419 km, 51.6° (Epoch: 31 July)

Date Brightness Start Highest point End Pass type
(mag) Time Alt. Az. Time Alt. Az. Time Alt. Az.
31 Jul - 01:02:51 10° WSW 01:06:12 83° NNW 01:09:34 10° ENE visible
31 Jul - 02:40:05 10° WNW 02:43:12 35° N 02:46:21 10° ENE visible
31 Jul - 04:17:08 10° WNW 04:20:23 44° NNE 04:23:38 10° E visible
31 Jul - 05:53:54 10° WNW 05:57:10 49° SSW 06:00:25 10° SE daylight
31 Jul - 22:40:04 10° SSE 22:41:13 11° SE 22:42:21 10° ESE night (unlit)
01 Aug - 00:14:03 10° SW 00:17:22 66° SSE 00:20:42 10° ENE visible
01 Aug - 01:51:04 10° W 01:54:15 39° N 01:57:27 10° ENE visible
01 Aug - 03:28:16 10° WNW 03:31:26 38° N 03:34:37 10° E visible
01 Aug - 05:05:00 10° WNW 05:08:22 77° SSW 05:11:44 10° ESE visible
01 Aug - 06:42:50 10° WSW 06:44:37 14° SW 06:46:23 10° SSW daylight
01 Aug - 23:25:25 10° SW 23:28:35 42° SE 23:31:47 10° ENE visible
02 Aug - 01:02:03 10° W 01:05:18 48° NNW 01:08:35 10° ENE visible
02 Aug - 02:39:21 10° WNW 02:42:28 34° N 02:45:35 10° ENE visible
02 Aug - 04:16:09 10° WNW 04:19:31 74° NNE 04:22:53 10° ESE visible
02 Aug - 05:53:18 10° W 05:55:58 22° SW 05:58:37 10° S daylight
02 Aug - 22:37:01 10° SSW 22:39:51 26° SE 22:42:43 10° E visible
03 Aug - 00:13:04 10° WSW 00:16:23 63° NNW 00:19:43 10° ENE visible
03 Aug - 01:50:22 10° WNW 01:53:29 34° N 01:56:35 10° ENE visible
03 Aug - 03:27:18 10° WNW 03:30:37 54° NNE 03:33:55 10° E visible
03 Aug - 05:04:10 10° WNW 05:07:15 34° SW 05:10:20 10° SSE visible
03 Aug - 21:48:57 10° S 21:51:10 17° SE 21:53:24 10° E visible
03 Aug - 23:24:09 10° WSW 23:27:30 89° NW 23:30:52 10° ENE visible
04 Aug - 01:01:21 10° WNW 01:04:29 36° N 01:07:38 10° ENE visible
04 Aug - 02:38:26 10° WNW 02:41:40 42° NNE 02:44:54 10° E visible
04 Aug - 04:15:11 10° WNW 04:18:29 54° SSW 04:21:46 10° SE visible
04 Aug - 21:02:08 10° SE 21:02:32 10° SE 21:02:57 10° SE daylight
04 Aug - 22:35:22 10° SW 22:38:39 60° SSE 22:41:58 10° ENE visible
05 Aug - 00:12:18 10° W 00:15:30 41° NNW 00:18:42 10° ENE visible
05 Aug - 01:49:32 10° WNW 01:52:41 37° N 01:55:50 10° ENE visible
05 Aug - 03:26:16 10° WNW 03:29:38 83° SSW 03:33:00 10° ESE night (unlit)
05 Aug - 05:03:54 10° W 05:05:55 15° SW 05:07:56 10° S visible
05 Aug - 21:46:44 10° SSW 21:49:51 38° SE 21:52:59 10° ENE visible
05 Aug - 23:23:16 10° W 23:26:31 50° NNW 23:29:48 10° ENE visible
06 Aug - 01:00:34 10° WNW 01:03:41 34° N 01:06:47 10° ENE visible
06 Aug - 02:37:23 10° WNW 02:40:45 69° NNE 02:44:06 10° ESE visible
06 Aug - 04:14:28 10° W 04:17:14 24° SW 04:19:59 10° SSE night (unlit)
06 Aug - 20:58:21 10° SSW 21:01:06 24° SE 21:03:51 10° E daylight
06 Aug - 22:34:16 10° WSW 22:37:35 67° NNW 22:40:55 10° ENE visible
07 Aug - 00:11:33 10° WNW 00:14:39 34° N 00:17:46 10° ENE visible
07 Aug - 01:48:31 10° WNW 01:51:48 51° NNE 01:55:05 10° E visible
07 Aug - 03:25:20 10° WNW 03:28:28 37° SW 03:31:36 10° SSE night (unlit)
07 Aug - 20:10:23 10° S 20:12:24 15° SE 20:14:25 10° E daylight
07 Aug - 21:45:21 10° WSW 21:48:40 85° SSE 21:52:02 10° ENE visible
07 Aug - 23:22:30 10° WNW 23:25:38 36° N 23:28:47 10° ENE visible
08 Aug - 00:59:37 10° WNW 01:02:49 41° NNE 01:06:01 10° E visible
08 Aug - 02:36:20 10° WNW 02:39:39 59° SSW 02:42:57 10° SE night (unlit)
08 Aug - 04:15:30 10° SW 04:15:46 10° SW 04:16:02 10° SW night (unlit)
08 Aug - 20:56:33 10° SW 20:59:48 55° SSE 21:03:05 10° ENE daylight
08 Aug - 22:33:25 10° W 22:36:37 42° NNW 22:39:50 10° ENE visible
09 Aug - 00:10:40 10° WNW 00:13:48 36° N 00:16:56 10° ENE visible
09 Aug - 01:47:24 10° WNW 01:50:46 90° SW 01:54:08 10° ESE visible
09 Aug - 03:24:53 10° W 03:27:06 17° SW 03:29:18 10° S night (unlit)
09 Aug - 20:07:56 10° SSW 20:10:59 34° SE 20:14:03 10° ENE daylight
09 Aug - 21:44:21 10° W 21:47:37 53° NNW 21:50:54 10° ENE visible
09 Aug - 23:21:40 10° WNW 23:24:45 34° N 23:27:51 10° ENE visible
